sat.trackr.live / text

‹ back to catalog

STARLINK-34877

NORAD 65630 · 2025-210J

PAYLOAD ACTIVE UNKNOWN

§ Identity

Operator
Country
US
Launch date
2025-09-18
Launch site
AFETR
Launch vehicle
Mass (kg)
RCS (m²)

Purposes: comms

External: N2YO · Heavens-Above · Gunter

§ Orbital elements

Epoch: 2026-05-25T04:22:22.004832Z

Period
93.85 min
Inclination
53.1606°
Eccentricity
0.0001116
Mean motion
15.34408509 rev/d
Perigee alt
461.9 km
Apogee alt
463.4 km
Semi-major
6,840.8 km
B*
7.1245e-4
RAAN
310.9889°
Arg perigee
77.5014°
Mean anomaly
282.6114°
Rev number
3,945

§ Raw data

STARLINK-348771 65630U 25210J   26145.18219913  .00023778  00000+0  71245-3 0  99902 65630  53.1606 310.9889 0001116  77.5014 282.6114 15.34408509 39458

JSON: /api/v1/satellites/65630 · /tle

For live sub-satellite position, see the globe view (requires WebGL).

§ Visibility from observer

Set your observer location to see the next 7 days of passes ≥ 10°. The values pass through the URL so the page stays shareable.

No JS? Fill the form by hand. The geolocation button needs JavaScript.